Milan, NH

11:47 PM EDT on August 28, 2016 (GMT -0400)
Berlin Municipal

Weather History for KBML - February, 2014

Change the Weather History Date:

Monday, February 3, 2014

  Actual Average Record
Temperature  
Mean Temperature 14 °F -  
Max Temperature 28 °F 26 °F 46 °F (2006)
Min Temperature -2 °F 1 °F -16 °F (2002)
Degree Days  
Heating Degree Days 50    
Moisture  
Dew Point 12 °F    
Average Humidity 73    
Maximum Humidity 92    
Minimum Humidity 47    
Precipitation  
Precipitation 0.00 in - - ()
Sea Level Pressure  
Sea Level Pressure 30.19 in    
Wind  
Wind Speed 3 mph (North)    
Max Wind Speed 5 mph    
Max Gust Speed -    
Visibility 9 miles    
Events Snow    
Averages and records for this station are not official NWS values.
T = Trace of Precipitation, MM = Missing Value Source: NWS Daily Summary

Daily Weather History Graph

Daily Weather History Graph

Search for Another Location

Airport or City:

Trip Planner

Search our weather history database for the weather conditions in past years. The results will help you decide how hot, cold, wet, or windy it might be!

Date:

Astronomy

Feb. 03, 2014 Rise Set
Actual Time 7:01 AM EST 4:56 PM EST
Civil Twilight 6:30 AM EST 5:27 PM EST
Nautical Twilight 5:55 AM EST 6:02 PM EST
Astronomical Twilight 5:21 AM EST 6:36 PM EST
Moon 8:49 AM EST (2/3) 9:57 PM EST (2/3)
Length of Visible Light 10h 57m
Length of Day
9h 55m
Waxing Crescent, 19% of the Moon is Illuminated
Feb 3
Waxing Crescent
Feb 6
First Quarter
Feb 14
Full
Feb 22
Last Quarter
Mar 1
New

Hourly Weather History & Observations

Time (EST) Temp. Windchill Dew Point Humidity Pressure Visibility Wind Dir Wind Speed Gust Speed Precip Events Conditions
12:05 AM 27.0 °F 21.6 °F 19.0 °F 72% 30.05 in 10.0 mi WNW 4.6 mph - N/A   Overcast
12:52 AM 26.1 °F 21.9 °F 19.0 °F 75% 30.11 in 10.0 mi Variable 3.5 mph - N/A   Overcast
1:52 AM 26.1 °F 20.5 °F 19.0 °F 75% 30.11 in 9.0 mi Variable 4.6 mph - N/A   Overcast
2:52 AM 25.0 °F 19.3 °F 19.0 °F 78% 30.13 in 5.0 mi Variable 4.6 mph - 0.00 in Snow Light Snow
3:52 AM 24.1 °F 19.7 °F 18.0 °F 77% 30.15 in 10.0 mi East 3.5 mph - 0.00 in   Overcast
4:52 AM 19.9 °F - 16.0 °F 85% 30.17 in 9.0 mi Calm Calm - N/A   Partly Cloudy
5:52 AM 18.0 °F - 15.1 °F 88% 30.17 in 7.0 mi Calm Calm - N/A   Clear
6:52 AM 18.0 °F - 16.0 °F 92% 30.19 in 9.0 mi Calm Calm - N/A   Clear
7:52 AM 18.0 °F 12.7 °F 15.1 °F 88% 30.21 in 7.0 mi NNW 3.5 mph - N/A   Clear
8:52 AM 21.0 °F 16.2 °F 16.0 °F 81% 30.21 in 10.0 mi NNW 3.5 mph - N/A   Clear
9:52 AM 23.0 °F 17.0 °F 17.1 °F 78% 30.21 in 10.0 mi NNE 4.6 mph - N/A   Clear
10:52 AM 25.0 °F 19.3 °F 16.0 °F 69% 30.22 in 7.0 mi North 4.6 mph - N/A   Clear
11:52 AM 26.1 °F 20.5 °F 15.1 °F 63% 30.20 in 10.0 mi North 4.6 mph - N/A   Clear
12:40 PM 27.0 °F - 12.9 °F 56% 30.13 in 1.8 mi Calm Calm - N/A   Haze
12:48 PM 26.6 °F - 12.2 °F 55% 30.12 in 4.0 mi Calm Calm - N/A   Haze
12:52 PM 27.0 °F 23.0 °F 12.9 °F 56% 30.18 in 10.0 mi NNE 3.5 mph - N/A   Clear
1:52 PM 27.0 °F - 12.9 °F 56% 30.18 in 10.0 mi Calm Calm - N/A   Clear
2:52 PM 28.0 °F 22.8 °F 12.9 °F 53% 30.19 in 10.0 mi North 4.6 mph - N/A   Clear
3:52 PM 28.9 °F 23.9 °F 10.9 °F 47% 30.18 in 10.0 mi NNW 4.6 mph - N/A   Clear
4:52 PM 25.0 °F - 12.0 °F 58% 30.21 in 10.0 mi Calm Calm - N/A   Clear
5:52 PM 18.0 °F - 12.0 °F 78% 30.22 in 10.0 mi Calm Calm - N/A   Clear
6:52 PM 12.9 °F - 9.0 °F 84% 30.24 in 10.0 mi Calm Calm - N/A   Clear
7:52 PM 9.0 °F - 5.0 °F 84% 30.26 in 10.0 mi Calm Calm - N/A   Clear
8:52 PM 6.1 °F - 1.9 °F 83% 30.28 in 10.0 mi Calm Calm - N/A   Clear
9:52 PM 3.0 °F - -0.9 °F 84% 30.30 in 10.0 mi Calm Calm - N/A   Clear
10:52 PM 1.0 °F - -5.1 °F 75% 30.31 in 10.0 mi Calm Calm - N/A   Clear
11:52 PM -2.0 °F - -7.1 °F 79% 30.32 in 10.0 mi Calm Calm - N/A   Clear